Location: Peebles
(55.6412°N, 3.1714°W)
Time: 23:09:38
(UTC+00:00)

CZ-4B R/B - Visible Passes

Search period start: 27 January 2022 00:00
Search period end: 06 February 2022 00:00
Orbit: 378 x 440 km, 97.6° (Epoch: 27 January)

Date Brightness Start Highest point End Pass type
(mag) Time Alt. Az. Time Alt. Az. Time Alt. Az.
27 Jan 4.0 05:43:14 10° ESE 05:45:22 17° ENE 05:47:33 10° NNE visible
27 Jan 1.5 07:14:04 10° S 07:17:02 45° W 07:20:05 10° NNW visible
28 Jan 2.2 06:26:43 10° SE 06:29:42 47° ENE 06:32:47 10° N visible
29 Jan 4.2 05:40:36 10° E 05:42:40 17° ENE 05:44:46 10° NNE visible
29 Jan 1.4 07:11:15 10° S 07:14:16 50° W 07:17:24 10° NNW visible
30 Jan 2.4 06:23:58 10° SE 06:26:56 43° ENE 06:30:00 10° N visible
31 Jan 4.3 05:37:55 10° E 05:39:53 16° ENE 05:41:53 10° NNE visible
31 Jan 1.3 07:08:23 10° S 07:11:27 55° WSW 07:14:37 10° NNW visible
01 Feb 2.6 06:21:08 10° SE 06:24:06 40° ENE 06:27:09 10° N visible
02 Feb 4.3 05:35:09 10° E 05:37:01 15° ENE 05:38:55 10° NNE visible
02 Feb 1.3 07:05:26 10° S 07:08:33 61° WSW 07:11:46 10° NNW visible
03 Feb 2.8 06:18:14 10° SE 06:21:11 37° ENE 06:24:12 10° N visible
04 Feb 4.4 05:32:20 10° E 05:34:06 14° ENE 05:35:52 10° NNE visible
04 Feb 1.2 07:02:25 10° S 07:05:34 68° WSW 07:08:49 10° NNW visible
05 Feb 3.0 06:15:16 10° SE 06:18:11 34° ENE 06:21:11 10° N visible
